Weather Roundup
Issued by NWS

Home | Current Version | Previous Version | Text Only | Print | Product List | Glossary On
Versions: 1 2 3 4 5 6 7 8 9 10 11 12 13 14 15 16 17 18 19 20 21 22 23 24 25 26 27 28 29 30 31 32 33 34 35 36 37 38 39 40 41 42 43 44 45 46 47 48 49 50
827
NZUS93 KARX 221210
HRRWXR

CURRENT HOURLY OBSERVATIONS ACROSS
MUCH OF THE UPPER MISSISSIPPI VALLEY
NATIONAL WEATHER SERVICE LA CROSSE WI
700 AM CDT FRI MAY 22 2015


...SOUTHEAST MINNESOTA...


CITY           SKY/WX    TMP DP  RH WIND       PRES   REMARKS
ROCHESTER      SUNNY     50  36  58 NW8       30.19R
ROCHESTER/MAYO FAIR      49  37  64 CALM      30.19R
WINONA         SUNNY     46  41  81 NW3       30.18R
AUSTIN         SUNNY     45  39  81 CALM      30.18R
ALBERT LEA     SUNNY     46  39  76 CALM      30.19R
DODGE CENTER   SUNNY     52  37  58 N5        30.18R
PRESTON        SUNNY     49  37  64 CALM      30.18R
OWATONNA       SUNNY     45  41  87 CALM      30.19R
FARIBAULT      SUNNY     45  41  87 CALM      30.19R
$$

...ELSEWHERE IN MINNESOTA...


CITY           SKY/WX    TMP DP  RH WIND       PRES   REMARKS
MINNEAPOLIS    SUNNY     51  39  63 CALM      30.19R
INTNL FALLS    SUNNY     37  34  89 CALM      30.18R
DULUTH         SUNNY     47  34  60 CALM      30.19R
RED WING       SUNNY     45  39  81 CALM      30.18R
REDWOOD FALLS  SUNNY     47  41  80 CALM      30.19R
MANKATO        SUNNY     45  37  76 CALM      30.19R
WORTHINGTON    SUNNY     45  34  65 CALM      30.20R
FAIRMONT       SUNNY     48  36  61 NW5       30.19R
$$

...SOUTHWEST WISCONSIN...


CITY           SKY/WX    TMP DP  RH WIND       PRES   REMARKS
LA CROSSE      SUNNY     48  42  80 SE5       30.17R
PRAIRIE DU CHI FAIR      44  40  88 CALM      30.18R
BOSCOBEL       SUNNY     43  42  97 CALM      30.19R
LONE ROCK      SUNNY     45  41  86 CALM      30.19R
PLATTEVILLE    SUNNY     49  42  78 E3        30.17R
FORT MC COY    SUNNY     38  37  94 CALM      30.19R
CAMP DOUGLAS   SUNNY     40  40 100 E2        30.19R
VIROQUA        FAIR      48  41  78 E8        30.17R
WIS DELLS      SUNNY     45  37  73 CALM      30.19R
$$

...ELSEWHERE IN WISCONSIN...


CITY           SKY/WX    TMP DP  RH WIND       PRES   REMARKS
MILWAUKEE      SUNNY     48  34  58 NE8       30.19R
MADISON        SUNNY     46  36  68 N5        30.19R
GREEN BAY      SUNNY     45  38  76 CALM      30.20R
EAU CLAIRE     SUNNY     45  40  82 NE5       30.18R
BLACK RVR FLS  FAIR      40  39  95 CALM      30.18R
MEDFORD        SUNNY     40  37  89 CALM      30.19R
WAUSAU         SUNNY     41  36  82 E6        30.18R
WIS RAPIDS     SUNNY     45  34  65 E5        30.21R
MARSHFIELD     SUNNY     46  38  73 E6        30.19R
RICE LAKE      SUNNY     44  40  85 CALM      30.20R
$$

...NORTHEAST IOWA...


CITY           SKY/WX    TMP DP  RH WIND       PRES   REMARKS
DECORAH        SUNNY     50  37  62 CALM      30.17R
MASON CITY     SUNNY     46  39  76 W6        30.20R
CHARLES CITY   SUNNY     46  41  81 NW3       30.19R
OELWEIN        SUNNY     48  41  76 N3        30.19R
$$

...ELSEWHERE IN IOWA...


CITY           SKY/WX    TMP DP  RH WIND       PRES   REMARKS
DES MOINES     MOSUNNY   53  42  66 NW5       30.19R
IOWA CITY      SUNNY     49  41  74 CALM      30.18R
FORT DODGE     SUNNY     45  39  81 CALM      30.19S
$$

...NORTHERN ILLINOIS...


CITY           SKY/WX    TMP DP  RH WIND       PRES   REMARKS
CHICAGO-OHARE  SUNNY     51  39  63 NE6       30.15R
CHICAGO-MIDWAY SUNNY     54  43  66 NE5       30.14R
MOLINE         SUNNY     50  44  80 CALM      30.16R
ROCKFORD       SUNNY     51  37  58 NE6       30.19R
PEORIA         SUNNY     55  46  71 W3        30.16R
$$

NOTE: "FAIR" INDICATES FEW OR NO CLOUDS BELOW 12,000 FEET WITH NO
SIGNIFICANT WEATHER AND/OR OBSTRUCTIONS TO VISIBILITY. WIND
SPEEDS ARE IN MILES-PER-HOUR.



USA.gov is the U.S. government's official web portal to all federal, state and local government web resources and services.